DECAYED

STARLINK-1235, 45232 (Decayed)

Orbit data source: Space-Track

STARLINK-1235, 45232 was a payload satellite owned by SpaceX/Seattle (US) in LEO that was launched on Mon, 17 Feb 2020 UTC via an FALCON 9 launch vehicle from the Air Force Eastern Test Range (AFETR). Payload-class satellites include a variety of spacecraft equipped with specific instruments for various scientific and technological missions. These include communications satellites like Starlink; space stations such as the ISS; scientific satellites like the Hubble; Earth observation satellites from companies like Planet Labs, Umbra, and HawkEye 360; GPS; miniature CubeSats for education and research; and military/defense satellites.

Not visible in the next 10 days
Identifier
45232, 2020-012BG
Orbit
Decayed
Country
Flag of USUS
Related business
Manufacturer
SpaceX/Seattle
Mission
Decayed Commercial Communications
Bus & Motor
STARLINK, Unknown motor
Mass
260 kg wet, ~248 kg dry
Launch date (UTC)
2020-02-17 (7 years ago)
Launch vehicle
FALCON 9
Launch site
Air Force Eastern Test Range (AFETR)
Object type
Payload
Rocket body
Debris
Shape & HBR
Box + 1 Pan, 10.1 m
Radar Cross Section
13.562 m², Large (>1 m²)

Expand to show TLE details & history
Last TLE update: 1 year ago

TLE from 1 year ago
0 STARLINK-1235
1 45232U 20012BG  25100.73220466  .19944511  12544-4  38649-3 0  9996
2 45232  53.0145 312.5618 0005780 262.6301 144.6566 16.46950264285798
Epoch: 2025-04-10T17:34Z
TLE epoch observation values (Epoch: 2025-04-10T17:34:22.482Z)
Latitude
36.08658°
Longitude
-117.15452°
Altitude
153.219 km
Speed
7.817 km/s
True Right ascension
23h 02m 33s
True Declination
35° 54' 28"
Sunlit
Object was in daylight at epoch
Visualization orbit readout
Latitude
Unknown
Longitude
Unknown
Altitude
Unknown
Speed
Unknown
Apparent Right ascension
Unknown
Apparent Declination
Unknown
Sunlit
N/A
Visualization observer readout
Local Sidereal Time
01:37:03
Azimuth
Unknown
Elevation
Unknown
Doppler factor
Unknown
Orbital elements
Apogee altitude
151.444 km
Perigee altitude
143.901 km
Semi-major axis
6,525.809 km
Eccentricity
0.00058
Inclination
53.0145°
RAAN
312.5618°
Arg. of periapsis
262.6301°
True anomaly
144.69489°
Mean anomaly
144.6566°
Eccentric anomaly
144.67575°
Mean motion
4.1171 °/min
Orbital period
87.44 mins
BSTAR
0.00038649
Loading maneuver chart data...
Computing Atmospheric mass density...

Documentation

Showing up to 5 results
|